[[{"header":{"parameterUnit":"m.s-1","parameterCategory":1,"la1":30.2991,"la2":30.254,"lo1":-89.0895,"lo2":-89.0444,"dy":0.0017,"dx":0.0017,"nx":28,"ny":28,"refTime":"2023-09-24T09:00:00:Z","depth":0,"parameterNumber":2,"parameterNumberName":"U-component_of_WINDS"},"data":[0,0,0,0,0,0,0,0,0,0,0,0,0,0,0,0,0,0,0,0,0,0,0,0,0,0,0,0,0,0,0,0,0,0,0,0,0,0,0,0,0,0,0,0,0,0,0,0,0,0,0,0,0,0,0,0,0,0,-1.4386,-1.4385,0,-1.4341,-1.434,-1.434,-1.4278,-1.4277,-1.4276,-1.4275,-1.423,-1.4229,-1.4229,0,0,0,0,0,0,0,0,0,0,0,0,0,-1.4418,-1.4418,-1.4386,-1.4385,-1.4385,-1.4341,-1.434,-1.434,-1.4278,-1.4277,-1.4275,-1.4274,-1.423,-1.4229,-1.4229,0,0,0,0,0,0,0,0,0,0,0,0,0,-1.4392,-1.4418,-1.4386,-1.4349,-1.4345,-1.4341,-1.434,-1.4339,-1.4278,-1.4276,-1.4275,-1.4273,-1.423,-1.4229,-1.4229,-1.4259,0,0,-1.4228,-1.4228,0,0,0,0,0,0,0,0,-1.4393,-1.4391,-1.4355,-1.4351,-1.4347,-1.4313,-1.4335,-1.4312,-1.4278,-1.4303,-1.4274,-1.4273,-1.4259,-1.4256,-1.4251,-1.4257,-1.4255,-1.4228,-1.4228,-1.4228,-1.4228,0,0,0,0,0,0,0,-1.4395,-1.4392,-1.4368,-1.4354,-1.4349,-1.4334,-1.4328,-1.433,-1.4291,-1.4301,-1.4296,-1.4292,-1.4256,-1.4251,-1.4249,-1.4254,-1.4228,-1.4228,-1.4228,-1.4227,-1.4279,-1.4281,0,0,0,0,0,0,-1.4403,-1.4394,-1.4369,-1.4367,-1.4367,-1.4335,-1.4328,-1.4326,-1.429,-1.4283,-1.4293,-1.4289,-1.4253,-1.425,-1.4248,-1.4278,-1.4228,-1.4227,-1.4227,-1.4278,-1.428,-1.4281,0,0,0,0,0,0,-1.4404,-1.4401,-1.4371,-1.4379,-1.4374,-1.4336,-1.4333,-1.4325,-1.432,-1.4284,-1.4277,-1.4296,-1.4251,-1.4248,-1.4256,-1.4276,-1.4227,-1.4227,-1.4276,-1.4278,-1.428,-1.4341,0,0,0,0,0,0,-1.4405,-1.4402,-1.4413,-1.438,-1.4374,-1.438,-1.4334,-1.4326,-1.432,-1.4314,-1.4285,-1.4278,-1.425,-1.4257,-1.4255,-1.4275,-1.4227,-1.4274,-1.4277,-1.428,-1.4337,-1.4345,-1.4352,0,0,0,0,0,-1.4406,-1.4432,-1.4414,-1.4411,-1.4387,-1.4382,-1.4378,-1.4345,-1.4322,-1.4332,-1.4309,-1.4279,-1.4274,-1.4258,-1.4256,-1.4276,-1.4272,-1.4276,-1.4279,-1.4334,-1.4344,-1.4352,0,0,0,0,0,0,-1.4469,-1.4427,-1.4406,-1.4422,-1.4406,-1.4371,-1.4383,-1.4357,-1.4347,-1.4342,-1.4301,-1.4295,-1.4307,-1.4292,-1.4275,-1.4301,-1.4269,-1.4272,-1.4311,-1.432,-1.4327,-1.433,-1.4226,0,0,0,0,0,-1.4485,-1.4484,-1.4448,-1.4466,-1.4458,-1.4422,-1.4419,-1.4394,-1.4376,-1.4369,-1.4346,-1.4329,-1.4323,-1.4321,-1.4314,-1.4335,-1.4327,-1.4347,-1.4355,-1.4361,-1.4364,-1.4372,-1.438,-1.4293,-1.4293,-1.4293,0,0,-1.4518,-1.4495,-1.4497,-1.4478,-1.4462,-1.4462,-1.4417,-1.4419,-1.4418,-1.4369,-1.4374,-1.4357,-1.4336,-1.435,-1.4355,-1.4337,-1.4386,-1.4365,-1.4371,-1.437,-1.4377,-1.4385,-1.4392,-1.4295,-1.4295,-1.4294,0,0,-1.4577,-1.456,-1.4572,-1.4557,-1.4533,-1.4509,-1.4512,-1.4481,-1.4467,-1.4472,-1.4434,-1.4433,-1.4425,-1.441,-1.4402,-1.4454,-1.4426,-1.4453,-1.4492,-1.4501,-1.4508,-1.4513,-1.4531,-1.4538,-1.4456,-1.4457,-1.4457,0,-1.4621,-1.4619,-1.4582,-1.4586,-1.4578,-1.4532,-1.4544,-1.4531,-1.4507,-1.4502,-1.4483,-1.4471,-1.4453,-1.4462,-1.4475,-1.447,-1.4471,-1.4456,-1.451,-1.4515,-1.452,-1.4536,-1.4543,-1.446,-1.446,-1.4459,-1.4459,0,-1.4673,-1.4672,-1.4684,-1.4661,-1.4655,-1.4663,-1.4627,-1.4624,-1.46,-1.4578,-1.4582,-1.456,-1.4546,-1.4547,-1.4524,-1.4552,-1.4542,-1.4517,-1.4483,-1.4532,-1.4547,-1.4553,-1.4465,-1.4464,-1.4463,-1.4462,0,0,-1.4771,-1.4726,-1.4731,-1.4719,-1.4689,-1.4688,-1.4693,-1.4679,-1.4678,-1.4663,-1.4665,-1.4658,-1.4634,-1.4625,-1.46,-1.4607,-1.4648,-1.4581,-1.458,-1.4593,-1.4676,-1.4695,-1.4703,-1.4629,-1.463,-1.4631,-1.4678,0,-1.4824,-1.483,-1.4796,-1.4811,-1.4809,-1.4765,-1.477,-1.4752,-1.4731,-1.4726,-1.4702,-1.4698,-1.4667,-1.4661,-1.4666,-1.4642,-1.4664,-1.4638,-1.4631,-1.4631,-1.4637,-1.471,-1.473,-1.4775,-1.4683,-1.4684,-1.4685,0,-1.4886,-1.4873,-1.4887,-1.4855,-1.4853,-1.4857,-1.4841,-1.4837,-1.4816,-1.48,-1.4788,-1.4759,-1.4761,-1.4729,-1.4731,-1.4714,-1.4709,-1.4697,-1.4698,-1.4695,-1.4661,-1.4709,-1.4789,-1.4796,-1.4694,-1.4693,-1.4692,0,-1.4955,-1.4941,-1.4947,-1.4938,-1.4901,-1.4905,-1.489,-1.4866,-1.486,-1.4846,-1.4841,-1.4828,-1.482,-1.4811,-1.4778,-1.4758,-1.4783,-1.4749,-1.4769,-1.477,-1.4777,-1.4776,-1.4856,-1.4775,-1.4775,-1.4775,-1.4775,0,-1.5016,-1.5027,-1.4977,-1.4981,-1.4991,-1.4952,-1.4963,-1.4943,-1.4922,-1.4921,-1.4883,-1.4883,-1.484,-1.4835,-1.481,-1.4814,-1.4812,-1.4798,-1.4791,-1.4801,-1.4803,-1.4797,-1.4793,-1.4776,-1.4776,-1.4776,-1.4775,0,-1.5095,-1.5062,-1.5066,-1.503,-1.5021,-1.503,-1.4999,-1.5001,-1.4977,-1.4976,-1.4973,-1.4936,-1.4928,-1.4894,-1.4878,-1.4861,-1.4874,-1.4861,-1.4881,-1.4876,-1.4898,-1.4896,-1.4976,-1.4984,-1.4899,-1.49,-1.49,0,-1.5136,-1.5142,-1.5107,-1.5103,-1.5089,-1.5084,-1.5077,-1.5038,-1.5032,-1.5007,-1.5012,-1.5,-1.4989,-1.4978,-1.4949,-1.4936,-1.4922,-1.4951,-1.492,-1.4929,-1.4921,-1.4921,-1.492,-1.4957,-1.4959,-1.4959,-1.496,0,-1.5212,-1.5195,-1.5186,-1.5171,-1.5163,-1.5149,-1.5133,-1.5132,-1.5089,-1.5084,-1.5075,-1.5066,-1.5049,-1.5038,-1.502,-1.5004,-1.4975,-1.497,-1.4974,-1.4984,-1.4995,-1.4988,-1.4898,-1.4968,-1.4968,-1.4967,-1.4967,-1.4966,-1.5272,-1.5275,-1.525,-1.5241,-1.5225,-1.521,-1.521,-1.5185,-1.5177,-1.5159,-1.5137,-1.513,-1.5107,-1.508,-1.5066,-1.506,-1.5044,-1.5049,-1.5051,-1.5053,-1.5057,-1.4996,-1.5056,-1.5056,-1.5056,-1.5056,-1.5055,0,-1.5345,-1.5327,-1.5318,-1.5297,-1.5289,-1.5262,-1.5242,-1.5238,-1.5232,-1.5212,-1.5202,-1.519,-1.5179,-1.5149,-1.5134,-1.5135,-1.5121,-1.5132,-1.5131,-1.5128,-1.5073,-1.507,-1.5144,-1.5144,-1.5143,-1.5143,-1.5143,-1.5143,-1.5382,-1.5386,-1.5366,-1.5361,-1.5342,-1.5334,-1.5325,-1.5312,-1.5296,-1.5284,-1.5274,-1.5255,-1.523,-1.5214,-1.5201,-1.5193,-1.5189,-1.5204,-1.5191,-1.514,-1.5132,-1.5124,-1.5121,-1.5204,-1.5204,-1.5247,-1.5247,-1.5247]},{"header":{"parameterUnit":"m.s-1","parameterCategory":1,"la1":30.2991,"la2":30.254,"lo1":-89.0895,"lo2":-89.0444,"dy":0.0017,"dx":0.0017,"nx":28,"ny":28,"refTime":"2023-09-24T09:00:00:Z","depth":0,"parameterNumber":3,"parameterNumberName":"V-component_of_WINDS"},"data":[0,0,0,0,0,0,0,0,0,0,0,0,0,0,0,0,0,0,0,0,0,0,0,0,0,0,0,0,0,0,0,0,0,0,0,0,0,0,0,0,0,0,0,0,0,0,0,0,0,0,0,0,0,0,0,0,0,0,-0.947,-0.947,0,-0.9443,-0.9443,-0.9443,-0.9455,-0.9455,-0.9456,-0.9457,-0.9426,-0.9425,-0.9424,0,0,0,0,0,0,0,0,0,0,0,0,0,-0.9528,-0.9527,-0.947,-0.947,-0.947,-0.9443,-0.9443,-0.9442,-0.9455,-0.9455,-0.9456,-0.9457,-0.9427,-0.9425,-0.9423,0,0,0,0,0,0,0,0,0,0,0,0,0,-0.9502,-0.9526,-0.947,-0.9473,-0.9472,-0.9443,-0.9443,-0.9442,-0.9454,-0.9455,-0.9457,-0.9457,-0.9427,-0.9425,-0.9423,-0.9389,0,0,-0.9417,-0.9416,0,0,0,0,0,0,0,0,-0.9503,-0.95,-0.9473,-0.9472,-0.9472,-0.9453,-0.9452,-0.9424,-0.9454,-0.9461,-0.9457,-0.9458,-0.9434,-0.9432,-0.9424,-0.9388,-0.9387,-0.9416,-0.9415,-0.9414,-0.9414,0,0,0,0,0,0,0,-0.9505,-0.9501,-0.9459,-0.9472,-0.9472,-0.9473,-0.9471,-0.9447,-0.9442,-0.9461,-0.9462,-0.9458,-0.9434,-0.9426,-0.9424,-0.9386,-0.9416,-0.9415,-0.9413,-0.9412,-0.9316,-0.9315,0,0,0,0,0,0,-0.9507,-0.9502,-0.946,-0.9459,-0.9491,-0.9471,-0.9469,-0.9458,-0.9443,-0.9441,-0.9457,-0.9459,-0.943,-0.9426,-0.9423,-0.9379,-0.9414,-0.9412,-0.9411,-0.9317,-0.9316,-0.9314,0,0,0,0,0,0,-0.9509,-0.9503,-0.9461,-0.9481,-0.9475,-0.9469,-0.9458,-0.9457,-0.9449,-0.944,-0.9439,-0.945,-0.943,-0.9426,-0.9397,-0.9378,-0.9411,-0.9409,-0.9319,-0.9317,-0.9315,-0.9293,0,0,0,0,0,0,-0.951,-0.9504,-0.9492,-0.948,-0.9474,-0.9437,-0.9457,-0.9456,-0.9446,-0.9447,-0.9433,-0.9432,-0.9431,-0.94,-0.9395,-0.9376,-0.9408,-0.932,-0.9318,-0.9316,-0.9295,-0.929,-0.9286,0,0,0,0,0,-0.9512,-0.9488,-0.9492,-0.9487,-0.946,-0.9436,-0.9433,-0.9433,-0.9444,-0.9431,-0.9425,-0.9432,-0.9381,-0.9397,-0.9391,-0.9371,-0.9321,-0.9318,-0.9316,-0.9297,-0.9291,-0.9286,0,0,0,0,0,0,-0.9497,-0.9486,-0.9491,-0.9462,-0.945,-0.9439,-0.9423,-0.9427,-0.9411,-0.9414,-0.9413,-0.941,-0.9379,-0.9373,-0.939,-0.9335,-0.9353,-0.9349,-0.9341,-0.9335,-0.9331,-0.9332,-0.9406,0,0,0,0,0,-0.9491,-0.9474,-0.9465,-0.944,-0.9434,-0.9429,-0.9419,-0.942,-0.9407,-0.9402,-0.9394,-0.938,-0.936,-0.9348,-0.933,-0.9295,-0.9289,-0.9278,-0.9273,-0.927,-0.9265,-0.9242,-0.9235,-0.9305,-0.9305,-0.9305,0,0,-0.9477,-0.9469,-0.9458,-0.9436,-0.9427,-0.9407,-0.9425,-0.9404,-0.9389,-0.9399,-0.937,-0.9363,-0.9348,-0.9314,-0.9299,-0.9308,-0.9245,-0.9266,-0.9263,-0.9261,-0.9238,-0.9232,-0.9226,-0.9303,-0.9303,-0.9304,0,0,-0.9441,-0.9434,-0.9411,-0.9401,-0.9387,-0.9384,-0.9378,-0.9366,-0.9361,-0.9333,-0.9338,-0.9319,-0.9287,-0.9275,-0.9264,-0.922,-0.9224,-0.9214,-0.919,-0.9167,-0.9162,-0.9157,-0.9138,-0.9131,-0.921,-0.921,-0.921,0,-0.9425,-0.9397,-0.9399,-0.9376,-0.9365,-0.9373,-0.9348,-0.9338,-0.9319,-0.931,-0.932,-0.9277,-0.9267,-0.9229,-0.9218,-0.921,-0.9201,-0.9215,-0.9163,-0.9158,-0.9153,-0.9135,-0.9128,-0.9209,-0.9209,-0.9209,-0.9209,0,-0.9376,-0.9357,-0.9339,-0.932,-0.9307,-0.9284,-0.9279,-0.9266,-0.9267,-0.9262,-0.923,-0.9219,-0.9197,-0.9188,-0.919,-0.9149,-0.9154,-0.9164,-0.9181,-0.9145,-0.9127,-0.9121,-0.9207,-0.9207,-0.9208,-0.9208,0,0,-0.9331,-0.9311,-0.9304,-0.9294,-0.9278,-0.9262,-0.9237,-0.9216,-0.9202,-0.9188,-0.9165,-0.9136,-0.9143,-0.9131,-0.9131,-0.9111,-0.9072,-0.9123,-0.9122,-0.9111,-0.9022,-0.9013,-0.9005,-0.9076,-0.9074,-0.9073,-0.9022,0,-0.9292,-0.925,-0.9249,-0.921,-0.9189,-0.9195,-0.9173,-0.9159,-0.9153,-0.9133,-0.9126,-0.9104,-0.9117,-0.9109,-0.909,-0.9081,-0.9054,-0.9085,-0.9051,-0.905,-0.9053,-0.8996,-0.8988,-0.894,-0.9015,-0.9014,-0.9014,0,-0.924,-0.9224,-0.9182,-0.9165,-0.9157,-0.9137,-0.9116,-0.9098,-0.9081,-0.9077,-0.9062,-0.9064,-0.9035,-0.9055,-0.9014,-0.9035,-0.9021,-0.9014,-0.9012,-0.9007,-0.9028,-0.8987,-0.8925,-0.8917,-0.9003,-0.9004,-0.9005,0,-0.9207,-0.9175,-0.9144,-0.9136,-0.9117,-0.9102,-0.9093,-0.9078,-0.9063,-0.9044,-0.9034,-0.9012,-0.8999,-0.898,-0.8974,-0.8989,-0.8931,-0.8951,-0.8925,-0.8925,-0.8911,-0.8912,-0.8843,-0.8907,-0.8907,-0.8907,-0.8907,0,-0.9162,-0.9136,-0.9129,-0.911,-0.9079,-0.9078,-0.9047,-0.9039,-0.9024,-0.9001,-0.9006,-0.8984,-0.8979,-0.8956,-0.8951,-0.8915,-0.891,-0.8904,-0.8903,-0.8902,-0.8902,-0.8892,-0.8894,-0.8905,-0.8905,-0.8906,-0.8906,0,-0.912,-0.9115,-0.9082,-0.9066,-0.9061,-0.9038,-0.9024,-0.9004,-0.8998,-0.8969,-0.8962,-0.8951,-0.8923,-0.8916,-0.8883,-0.888,-0.8837,-0.884,-0.8842,-0.8841,-0.8814,-0.8816,-0.8734,-0.8722,-0.8796,-0.8795,-0.8795,0,-0.909,-0.907,-0.9051,-0.9037,-0.9027,-0.9004,-0.8989,-0.8986,-0.897,-0.8947,-0.8929,-0.8902,-0.888,-0.8835,-0.8823,-0.8796,-0.8797,-0.877,-0.8793,-0.8792,-0.8792,-0.8792,-0.8788,-0.8765,-0.8764,-0.8764,-0.8763,0,-0.9037,-0.9035,-0.9014,-0.8991,-0.8974,-0.8955,-0.8938,-0.8925,-0.8919,-0.89,-0.8872,-0.8855,-0.882,-0.8792,-0.8764,-0.8753,-0.8755,-0.8756,-0.8748,-0.8746,-0.8747,-0.8742,-0.8827,-0.8758,-0.8758,-0.8759,-0.8759,-0.8759,-0.8998,-0.8978,-0.8961,-0.8937,-0.8924,-0.8906,-0.8886,-0.8876,-0.8853,-0.8825,-0.8824,-0.8792,-0.8772,-0.8735,-0.8722,-0.8695,-0.8703,-0.8692,-0.8689,-0.8685,-0.8681,-0.8753,-0.869,-0.8691,-0.8691,-0.8691,-0.8691,0,-0.8942,-0.8931,-0.8909,-0.8884,-0.8863,-0.8869,-0.8849,-0.8831,-0.8803,-0.8785,-0.8763,-0.8728,-0.8699,-0.8684,-0.8655,-0.8636,-0.8636,-0.8628,-0.8628,-0.8624,-0.8678,-0.8686,-0.8628,-0.8628,-0.8628,-0.8628,-0.8628,-0.8628,-0.891,-0.8877,-0.8872,-0.883,-0.8819,-0.8788,-0.8776,-0.8758,-0.8743,-0.8705,-0.8681,-0.8672,-0.8653,-0.8622,-0.8594,-0.859,-0.8578,-0.8568,-0.8564,-0.8614,-0.8621,-0.8627,-0.8635,-0.8566,-0.8566,-0.8512,-0.8512,-0.8511]}]]